Ankeny, IA

7:30 AM CST on December 06, 2019 (GMT -0600)
Ankeny Regional

Weather History for KIKV - November, 2019

Change the Weather History Date:

Sunday, November 17, 2019

  Actual Average (KDSM) Record (KDSM)
Temperature  
Mean Temperature 40 °F -  
Max Temperature 44 °F 50 °F 76 °F (2016)
Min Temperature 35 °F 31 °F -2 °F (1959)
Degree Days  
Heating Degree Days 26    
Moisture  
Dew Point 36 °F    
Average Humidity 87    
Maximum Humidity 93    
Minimum Humidity 81    
Precipitation  
Precipitation 0.09 in - - ()
Sea Level Pressure  
Sea Level Pressure 29.94 in    
Wind  
Wind Speed 5 mph ()    
Max Wind Speed 12 mph    
Max Gust Speed 15 mph    
Visibility 8.7 miles    
Events Rain    
Averages and records for this station are not official NWS values.
T = Trace of Precipitation, MM = Missing Value Source: Averaged Metar Reports

Daily Weather History Graph

Daily Weather History Graph

Search for Another Location

Airport or City:

Astronomy

Nov. 17, 2019 Rise Set
Actual Time 7:05 AM CST 4:52 PM CST
Civil Twilight 6:35 AM CST 5:22 PM CST
Nautical Twilight 6:01 AM CST 5:56 PM CST
Astronomical Twilight 5:28 AM CST 6:29 PM CST
Moon 9:28 PM CST (11/17) 11:52 AM CST (11/17)
Length of Visible Light 10h 46m
Length of Day
9h 46m
Waning Gibbous, 73% of the Moon is Illuminated
Nov 17
Waning Gibbous
Nov 19
Last Quarter
Nov 26
New
Dec 4
First Quarter
Dec 11
Full

Hourly Weather History & Observations

Time (CST) Temp. Windchill Dew Point Humidity Pressure Visibility Wind Dir Wind Speed Gust Speed Precip Events Conditions
12:35 AM 39.2 °F 34.2 °F 33.8 °F 81% 30.02 in 10.0 mi SSE 6.9 mph - N/A   Clear
12:55 AM 39.2 °F 33.0 °F 33.8 °F 81% 30.01 in 10.0 mi SSE 9.2 mph - N/A   Clear
1:15 AM 39.2 °F 33.6 °F 33.8 °F 81% 30.00 in 10.0 mi SSE 8.1 mph - N/A   Clear
1:35 AM 39.2 °F 34.2 °F 33.8 °F 81% 29.99 in 10.0 mi SSE 6.9 mph - N/A   Clear
1:55 AM 39.2 °F 34.2 °F 33.8 °F 81% 29.99 in 10.0 mi SSE 6.9 mph - N/A   Clear
2:15 AM 39.2 °F 34.2 °F 33.8 °F 81% 29.98 in 10.0 mi SSE 6.9 mph - N/A   Clear
2:35 AM 39.2 °F 35.0 °F 33.8 °F 81% 29.97 in 10.0 mi SSE 5.8 mph - N/A   Clear
2:55 AM 39.2 °F 35.9 °F 33.8 °F 81% 29.97 in 9.0 mi South 4.6 mph - N/A   Partly Cloudy
3:15 AM 39.2 °F 37.0 °F 33.8 °F 81% 29.97 in 9.0 mi South 3.5 mph - N/A   Scattered Clouds
3:35 AM 39.2 °F 35.9 °F 33.8 °F 81% 29.97 in 9.0 mi South 4.6 mph - N/A   Partly Cloudy
3:55 AM 39.2 °F 37.0 °F 33.8 °F 81% 29.96 in 9.0 mi SSE 3.5 mph - N/A   Scattered Clouds
4:15 AM 37.4 °F 33.8 °F 33.8 °F 87% 29.96 in 8.0 mi SSE 4.6 mph - N/A   Mostly Cloudy
4:35 AM 37.4 °F 33.8 °F 33.8 °F 87% 29.95 in 9.0 mi South 4.6 mph - N/A   Mostly Cloudy
5:15 AM 37.4 °F 34.9 °F 33.8 °F 87% 29.94 in 9.0 mi South 3.5 mph - N/A   Mostly Cloudy
5:35 AM 37.4 °F - 33.8 °F 87% 29.94 in 9.0 mi Calm Calm - N/A   Scattered Clouds
6:15 AM 37.4 °F - 32.0 °F 81% 29.93 in 9.0 mi Calm Calm - N/A   Partly Cloudy
6:35 AM 35.6 °F - 33.8 °F 93% 29.93 in 8.0 mi Calm Calm - N/A   Mostly Cloudy
6:55 AM 35.6 °F - 33.8 °F 93% 29.93 in 7.0 mi Calm Calm - N/A   Overcast
7:15 AM 35.6 °F - 33.8 °F 93% 29.93 in 7.0 mi Calm Calm - N/A   Mostly Cloudy
7:35 AM 35.6 °F - 33.8 °F 93% 29.93 in 7.0 mi Calm Calm - N/A   Mostly Cloudy
7:55 AM 37.4 °F - 33.8 °F 87% 29.94 in 6.0 mi Calm Calm - N/A   Mostly Cloudy
8:15 AM 39.2 °F 35.9 °F 33.8 °F 81% 29.94 in 9.0 mi NW 4.6 mph - N/A   Overcast
8:35 AM 39.2 °F 33.6 °F 35.6 °F 87% 29.95 in 4.0 mi NW 8.1 mph - N/A   Overcast
8:55 AM 39.2 °F 33.0 °F 35.6 °F 87% 29.95 in 3.0 mi NW 9.2 mph - 0.01 in Rain Light Rain
9:15 AM 39.2 °F 33.6 °F 35.6 °F 87% 29.95 in 3.0 mi NW 8.1 mph - N/A Rain Light Rain
9:35 AM 39.2 °F 33.6 °F 37.4 °F 93% 29.96 in 3.0 mi NW 8.1 mph 13.8 mph N/A Rain Light Rain
9:55 AM 39.2 °F 33.0 °F 37.4 °F 93% 29.96 in 4.0 mi NW 9.2 mph - 0.05 in Rain Light Rain
10:15 AM 39.2 °F 34.2 °F 37.4 °F 93% 29.97 in 4.0 mi NNW 6.9 mph - N/A Rain Light Rain
10:35 AM 41.0 °F 36.4 °F 39.2 °F 93% 29.96 in 4.0 mi North 6.9 mph - N/A Rain Light Rain
10:55 AM 41.0 °F 37.1 °F 39.2 °F 93% 29.96 in 7.0 mi NW 5.8 mph - 0.03 in   Overcast
11:15 AM 41.0 °F 37.1 °F 39.2 °F 93% 29.96 in 8.0 mi NW 5.8 mph - N/A   Overcast
11:35 AM 42.8 °F 38.6 °F 41.0 °F 93% 29.96 in 9.0 mi WNW 6.9 mph - N/A   Overcast
11:55 AM 42.8 °F 37.5 °F 41.0 °F 93% 29.95 in 9.0 mi NW 9.2 mph - N/A   Overcast
12:15 PM 42.8 °F 39.3 °F 41.0 °F 93% 29.94 in 9.0 mi WNW 5.8 mph - N/A   Mostly Cloudy
12:35 PM 42.8 °F 39.3 °F 41.0 °F 93% 29.93 in 10.0 mi NW 5.8 mph - N/A   Mostly Cloudy
12:55 PM 44.6 °F 40.2 °F 41.0 °F 87% 29.92 in 10.0 mi NW 8.1 mph - N/A   Overcast
1:15 PM 42.8 °F 37.0 °F 39.2 °F 87% 29.92 in 10.0 mi North 10.4 mph - N/A   Overcast
1:35 PM 42.8 °F 38.6 °F 39.2 °F 87% 29.92 in 10.0 mi NW 6.9 mph - N/A   Overcast
1:55 PM 42.8 °F 38.6 °F 39.2 °F 87% 29.92 in 10.0 mi NW 6.9 mph - N/A   Overcast
2:15 PM 42.8 °F 38.6 °F 39.2 °F 87% 29.92 in 10.0 mi NNW 6.9 mph 12.7 mph N/A   Overcast
3:15 PM 42.8 °F 38.0 °F 39.2 °F 87% 29.92 in 10.0 mi North 8.1 mph - N/A   Overcast
3:35 PM 41.0 °F 37.1 °F 37.4 °F 87% 29.92 in 10.0 mi North 5.8 mph - N/A   Overcast
3:55 PM 41.0 °F 36.4 °F 37.4 °F 87% 29.93 in 9.0 mi North 6.9 mph - N/A   Overcast
4:15 PM 41.0 °F 36.4 °F 37.4 °F 87% 29.93 in 10.0 mi NNW 6.9 mph - N/A   Overcast
4:35 PM 41.0 °F 35.8 °F 37.4 °F 87% 29.93 in 9.0 mi NNW 8.1 mph - N/A   Overcast
4:55 PM 41.0 °F 35.8 °F 37.4 °F 87% 29.93 in 8.0 mi North 8.1 mph - N/A   Overcast
5:15 PM 41.0 °F 37.1 °F 37.4 °F 87% 29.94 in 10.0 mi NNW 5.8 mph - N/A   Overcast
5:35 PM 41.0 °F 34.3 °F 37.4 °F 87% 29.94 in 8.0 mi NNW 11.5 mph - N/A   Overcast
5:55 PM 39.2 °F 33.6 °F 37.4 °F 93% 29.94 in 10.0 mi NW 8.1 mph - N/A   Overcast
6:15 PM 39.2 °F 33.0 °F 37.4 °F 93% 29.94 in 10.0 mi NW 9.2 mph - N/A   Overcast
6:35 PM 39.2 °F 33.0 °F 35.6 °F 87% 29.94 in 10.0 mi NW 9.2 mph 15.0 mph N/A   Overcast
6:55 PM 39.2 °F 33.6 °F 35.6 °F 87% 29.94 in 10.0 mi NW 8.1 mph - N/A   Overcast
7:15 PM 39.2 °F 33.0 °F 35.6 °F 87% 29.93 in 10.0 mi NW 9.2 mph - N/A   Overcast
7:35 PM 39.2 °F 34.2 °F 35.6 °F 87% 29.93 in 10.0 mi NNW 6.9 mph - N/A   Overcast
7:55 PM 39.2 °F 33.6 °F 35.6 °F 87% 29.93 in 10.0 mi North 8.1 mph - N/A   Overcast
8:15 PM 37.4 °F 32.8 °F 33.8 °F 87% 29.93 in 10.0 mi North 5.8 mph 13.8 mph N/A   Overcast
8:35 PM 37.4 °F 32.1 °F 33.8 °F 87% 29.92 in 10.0 mi North 6.9 mph - N/A   Overcast
8:55 PM 37.4 °F 31.4 °F 33.8 °F 87% 29.93 in 10.0 mi NNW 8.1 mph - N/A   Overcast
9:15 PM 37.4 °F 33.8 °F 33.8 °F 87% 29.92 in 10.0 mi NW 4.6 mph - N/A   Overcast
9:35 PM 37.4 °F 32.8 °F 33.8 °F 87% 29.92 in 10.0 mi North 5.8 mph - N/A   Overcast
10:15 PM 37.4 °F - 33.8 °F 87% 29.92 in 10.0 mi Calm Calm - N/A   Overcast
10:35 PM 37.4 °F 33.8 °F 33.8 °F 87% 29.92 in 10.0 mi NNW 4.6 mph - N/A   Overcast
10:55 PM 37.4 °F 33.8 °F 33.8 °F 87% 29.91 in 10.0 mi North 4.6 mph - N/A   Overcast
11:15 PM 37.4 °F - 33.8 °F 87% 29.90 in 10.0 mi Calm Calm - N/A   Overcast
11:35 PM 37.4 °F 33.8 °F 33.8 °F 87% 29.90 in 10.0 mi North 4.6 mph - N/A   Overcast
11:55 PM 37.4 °F - 33.8 °F 87% 29.90 in 10.0 mi Calm Calm - N/A   Overcast